Regional Weather Roundup
Issued by NWS Wakefield, VA

Home | Current Version | Previous Version | Text Only | Print | Product List | Glossary On
Versions: 1 2 3 4 5 6 7 8 9 10 11 12 13 14 15 16 17 18 19 20 21 22 23 24 25 26 27 28 29 30 31 32 33 34 35 36 37 38 39 40 41 42 43 44 45 46 47
000
ASUS41 KAKQ 010810
RWRAKQ

REGIONAL WEATHER ROUNDUP
NATIONAL WEATHER SERVICE WAKEFIELD VA
400 AM EDT WED OCT 01 2014

Note: "fair" indicates few or no clouds below 12,000 feet with no
significant weather and/or obstructions to visibility. * = Denotes
station may not report precipitation (e.g., rain,snow,etc.),
thunder or fog.

VAZ042-051-052>054-056-010900-
NORTHERN VIRGINIA

CITY           SKY/WX    TMP DP  RH WIND       PRES   REMARKS
WASH NATIONAL  CLOUDY    68  63  83 NE8       29.95F
DULLES         LGT RAIN  63  62  97 CALM      29.96S
FORT BELVOIR   CLOUDY    65  63  92 VRB1      29.95S
QUANTICO       CLOUDY    63  61  93 N5        29.95F
FREDERICKSBRG*   N/A     62  62 100 CALM      29.94S FOG
STAFFORD*      MOCLDY    60  60 100 CALM      29.98F FOG
WARRENTON      FOG       64  64 100 NE3       29.95R VSB 1/4
CULPEPER*      FOG       61  59  94 CALM      29.96R VSB 1/2
MANASSAS*      CLOUDY    64  64 100 NW3       29.96R
LEESBURG*      CLOUDY    63  63 100 N5        29.97S FOG
WINCHESTER     RAIN      61  61 100 E3        29.96F
FRONT ROYAL*   CLOUDY    61  61 100 CALM      29.96R
LURAY*         CLOUDY    63  63 100 CALM      29.96S FOG
$$

VAZ048-049-060>072-079>083-010900-
CENTRAL AND SOUTH CENTRAL VIRGINIA...AND NORTH CENTRAL NORTH CAROLINA

CITY           SKY/WX    TMP DP  RH WIND       PRES   REMARKS
RICHMOND       MOCLDY    61  59  93 CALM      29.93S
CHESTERFIELD*  SUNNY    N/A N/A N/A CALM      29.94S
PETERSBURG*    FOG       55  55  97 CALM      29.94F VSB 1
HANOVER        MOCLDY    59  58  96 CALM      29.95S FOG
TAPPAHANNOCK*  CLEAR     59  57  94 CALM      29.94S FOG
CHARLOTTSVILLE CLOUDY    63  61  93 CALM      29.94F FOG
ORANGE*        FOG       61  59  94 CALM      29.96S VSB 1/4
LOUISA*        FOG       59  57  94 CALM      29.94R VSB 1/2
FARMVILLE*     FOG       59  59 100 CALM      29.92S VSB 1/2
CREWE*         CLOUDY    56  54  94 CALM      29.93F VSB 1/4
FORT PICKETT*    N/A     58  57  97 CALM      29.94S
LUNENBURG*     CLOUDY    53  53  99 CALM      29.94S VSB 1/4
SOUTH HILL*    MOCLDY    61  61 100 CALM      29.98F FOG
LAWRENCEVILLE* PTSUNNY   60  60 100 CALM      29.93F
ROANOKE RAPIDS FOG       55  55 100 N3        29.93S VSB<1/4
RALEIGH        PTCLDY    57  55  93 CALM      29.94S FOG
$$

VAZ088>098-010900-
SOUTHEAST VIRGINIA

CITY           SKY/WX    TMP DP  RH WIND       PRES   REMARKS
NORFOLK        PTCLDY    68  63  84 NE7       29.91F
VIRGINIA BEACH PTCLDY    64  60  87 N5        29.90S
NORFOLK NAVAL  MOCLDY    68  63  84 NE6       29.92F
WEST POINT*    PTCLDY    60  58  93 CALM      29.94R
NEWPORT NEWS   FOG       65  61  87 CALM      29.91F VSB 1/4
LANGLEY AFB    CLEAR     61  61 100 W1        29.92F
FORT EUSTIS    FOG       63 N/A N/A NW1       29.90F VSB 3/4
WILLIAMSBURG*  CLEAR     63  63 100 CALM      29.93S
HR EXEC AP*    PTSUNNY   54  52  94 CALM      29.93F VSB 1
FRANKLIN*      CLOUDY    57 N/A N/A CALM      29.92S VSB 1/4
WAKEFIELD      FOG       60  58  92 CALM      29.93S VSB 1/4
$$

VAZ020-022-025-037-045-010900-
WEST CENTRAL AND SOUTHWEST VIRGINIA

CITY           SKY/WX    TMP DP  RH WIND       PRES   REMARKS
STAUNTON*      CLOUDY    63  58  84 CALM      29.98S
HOT SPRINGS VA PTCLDY    55  38  52 W6        30.04S
LYNCHBURG      CLOUDY    63  63 100 CALM      29.96F
DANVILLE       FOG       63  61  93 E5        29.94S VSB 1/4
SOUTH BOSTON*  NOT AVBL
MARTINSVILLE   PTCLDY    55  55 100 CALM      29.97R FOG
ROANOKE        MOCLDY    57  55  93 W3        29.98S
BLACKSBURG       N/A     52  52 100 CALM      30.00F FOG
DUBLIN*        CLEAR     52  52 100 CALM      30.00S FOG
MARION*        CLEAR     51  50  96 CALM      30.03S FOG
HILLSVILLE*    CLEAR     52  51  99 SW5       30.01S FOG
RICHLANDS*     SUNNY     60  54  80 CALM      30.01S
WISE*          CLEAR     55  52  88 SW3       30.02S
ABINGDON*      CLEAR     55  53  95 CALM      30.00S
$$

MDZ021>025-VAZ099-100-010900-
SOUTHERN MARYLAND AND THE DELMARVA PENINSULA

CITY           SKY/WX    TMP DP  RH WIND       PRES   REMARKS
PATUXENT RIVER PTCLDY    65  62  90 NE6       29.94R
BAY BRIDGE APT   N/A     63  61  94 CALM      29.97R
LEONARDTOWN    PTCLDY    63  61  94 CALM      29.96R
DOVER          CLOUDY    62  62 100 N8        29.92F
GEORGETOWN     CLOUDY    63  60  90 VRB5      29.94S
EASTON         PTCLDY    63  63 100 CALM      29.99R
CAMBRIDGE      PTCLDY    63  61  94 NE3       29.94S
SALISBURY      PTCLDY    63  59  87 N6        29.93S
OCEAN CITY     CLEAR    N/A N/A N/A NW5       29.92S HAZE
WALLOPS ISLAND CLEAR     62  60  93 N5        29.93S
ACCOMACK*      CLEAR     61  59  94 NE3       29.92R FOG
$$

NCZ012>017-030>032-010900-
EASTERN NORTH CAROLINA

CITY           SKY/WX    TMP DP  RH WIND       PRES   REMARKS
ELIZABETH CITY CLEAR     64  63  96 N6        29.90F
AHOSKIE*       CLEAR     56  55  97 CALM      29.92F FOG
EDENTON*       CLEAR     60  59  97 N3        29.91S
CURRITUCK*     CLEAR     63  61  94 CALM      29.91S
KILL DEVIL HLS PTCLDY    69  64  84 N7        29.88S
MANTEO         PTCLDY    68  64  86 N9        29.89S
CAPE HATTERAS  PTCLDY    68  66  93 N9        29.87S
TARBORO*       FOG       56  55  98 CALM      29.93S VSB 1/4
GOLDSBORO      CLEAR     62  62  98 CALM      29.90S
WASHINGTON     CLEAR     60  60  99 CALM      29.91S
GREENVILLE     FOG       59  59 100 CALM      29.93S VSB 1/2
NEW BERN       FOG       63  61  94 CALM      29.91S VSB 1/2
WILMINGTON     CLEAR     63  62  97 N3        29.89S
$$

VAZ048-010900-
ELSEWHERE

CITY           SKY/WX    TMP DP  RH WIND       PRES   REMARKS
HARRISBURG PA  CLOUDY    60  59  96 CALM      29.97F
BALTIMORE      MOCLDY    63  61  93 NE9       29.96F
ANNAPOLIS      MOCLDY    65  61  87 NE5       29.96R
ANDREWS AFB    MOCLDY    64  63  98 NE7       29.95S
WILMINGTON DE  CLOUDY    63  59  87 N8        29.98S
PHILADELPHIA   LGT RAIN  64  59  83 NE7       29.97F
WILDWOOD NJ*   CLOUDY    61  57  88 N7        29.94S
ATLANTIC CITY  CLOUDY    63  62  97 N9        29.94F
HENDERSON NC   FOG       58  57  96 CALM      29.94S VSB 1/4
GREENSBORO     PTCLDY    62  61  96 CALM      29.93R FOG
ROCKY MOUNT    FOG       57  56  96 CALM      29.93R VSB 1/2
FAYETTEVILLE   FOG       61  60  97 N3        29.91S VSB 1/4
CHARLOTTE      CLEAR     62  60  93 CALM      29.93S
$$

VAZ100-010900-
MARINE

STATION/POSITION TIME  TEMP    WIND        PRES    WAVE   SWELL
                       AIR SEA DIR/SP/G            HT/PER HT/PER
                 (UTC) (F)     (DEG/KT/KT) (MB)    (FT/S) (FT/S)
44066 TX TWR #4  0800   67 69   30/ 17/ 21 1012.2S   5/ 6   2/ 8
CAPE MAY NJ      0800   62 74   20/  4/  7 1013.2F
LEWES DE         0800   66 70   30/ 13/ 16 1013.4R
15NM E FENWICK I 0700   69 70              1012.8F   3/ 4
OCEAN-CITY-INLET 0800   66 72   10/  8/  9 1012.6F
WACHAPREAGUE VA  0800   63 74  360/  3/  5 1013.0R
THOMAS POINT MD  0800   65 72   40/ 10/ 11 1015.4R
GOOSES REEF MD   0800   67      70/  8/  8 1014.5R
COVE POINT MD    0800   65      50/  6/  8 1013.8R
SOLOMONS ISLAND  0800      72                N/A
BISHOPS HEAD MD  0800   65 73   30/ 10/ 12 1013.0S
PINEY POINT MD   0800           60/  4/  5   N/A
POTOMAC MD       0800   69      70/  8/ 10 1012.7F
CAMBRIDGE MD     0800   65 71   40/  6/  9 1013.5F
LEWISETTA VA     0800   69 72   60/  5/  7 1013.1R
RAPPAHANNOCK LGT 0800           30/  8/  9 1013.5F
STINGRAY PT      0800   70      50/  6/  8   N/A
YORK RVR RNG VA  0800   69      10/  6/  7 1012.4S
YORKTOWN VA      0800   67 73   10/  5/  5 1012.6F
JAMESTOWN VA     0800   63      10/  2/  4   N/A
DOMINION TERM VA 0800   67      50/  2/  3 1012.8F
KIPTOPEKE VA     0800      76   30/  5/  6   N/A
CHES BAY BRIDGE  0800   69 72   20/  7/  8 1012.2F
CHESAPEAKE LGHT  0700   70      20/ 13/ 14 1013.2F
WILLOUBY STN VA  0800   70      40/  7/  8 1011.5S
S CRANEY ISL VA  0800           10/  6/  7 1012.4F
CAPE HENRY BUOY  0800      73                N/A     2/14   2/14
1ST LANDING BUOY 0800   70      30/  8/ 10 1012.5S
CAPE CHARLES BUO 0800      72                N/A     2/14   2/14
OFFSHORE WE BUOY 0800      73                N/A     3/14   2/14
64NM E OF VA BCH 0800   70 72   10/ 14/ 17 1011.2F   3/ 4   2/14
DUCK PIER NC     0800   70 73   20/ 16/ 17 1011.4S
44100 DUCK FRF   0800      72                N/A     3/ 4   2/14
44056 DUCK FRF   0700                        N/A     3/ 7
OREGON INLET NC  0800   70 74  360/ 10/ 15 1011.7F
HATTERAS NC      0800   71 74   10/ 16/ 18 1011.9R
DIAMOND SHLS NC  0800   71     340/ 17/ 21 1010.7F   4/ 6   2/ 9
CAPE LOOKOUT NC  0700   69     360/  9/ 11 1011.5F
$$



USA.gov is the U.S. government's official web portal to all federal, state and local government web resources and services.